Weather History for Gadsden, AL

Change the Weather History Date:

Thursday, January 2, 2014

  Actual Average Record
Temperature  
Mean Temperature 38 °F -  
Max Temperature 51 °F 50 °F 80 °F (1952)
Min Temperature 24 °F 31 °F 12 °F (2001)
Degree Days  
Heating Degree Days 26    
Moisture  
Dew Point 32 °F    
Average Humidity 74    
Maximum Humidity 93    
Minimum Humidity 51    
Precipitation  
Precipitation 0.34 in - - ()
Sea Level Pressure  
Sea Level Pressure 30.03 in    
Wind  
Wind Speed 5 mph (NW)    
Max Wind Speed 20 mph    
Max Gust Speed 30 mph    
Visibility 8 miles    
Events      
Averages and records for this station are not official NWS values.
T = Trace of Precipitation, MM = Missing Value Source: NWS Daily Summary

Daily Weather History Graph

Daily Weather History Graph

Search for Another Location

Airport:

Trip Planner

Search our weather history database for the weather conditions in past years. The results will help you decide how hot, cold, wet, or windy it might be!

Date:

Astronomy

Jan. 02, 2014 Rise Set
Actual Time 6:49 AM CST 4:47 PM CST
Civil Twilight 6:22 AM CST 5:14 PM CST
Nautical Twilight 5:51 AM CST 5:45 PM CST
Astronomical Twilight 5:20 AM CST 6:16 PM CST
Moon 7:35 AM CST (1/2) 6:37 PM CST (1/2)
Length of Visible Light 10h 52m
Length of Day
9h 57m
Waxing Crescent, 3% of the Moon is Illuminated
Jan 2
Waxing Crescent
Jan 7
First Quarter
Jan 15
Full
Jan 23
Last Quarter
Jan 30
New

Hourly Weather History & Observations

Time (CST) Temp. Windchill Dew Point Humidity Pressure Visibility Wind Dir Wind Speed Gust Speed Precip Events Conditions
12:15 AM 44.6 °F - 37.4 °F 76% 30.07 in 10.0 mi Calm Calm - N/A   Mostly Cloudy
12:35 AM 44.6 °F 43.1 °F 37.4 °F 76% 30.06 in 10.0 mi South 3.5 mph - N/A   Mostly Cloudy
12:55 AM 44.6 °F - 37.4 °F 76% 30.05 in 10.0 mi Calm Calm - N/A   Overcast
1:15 AM 44.6 °F - 39.2 °F 81% 30.05 in 10.0 mi Calm Calm - N/A   Overcast
1:35 AM 44.6 °F - 39.2 °F 81% 30.05 in 10.0 mi Calm Calm - N/A   Overcast
1:55 AM 44.6 °F - 39.2 °F 81% 30.05 in 10.0 mi Calm Calm - N/A   Mostly Cloudy
2:15 AM 44.6 °F 43.1 °F 39.2 °F 81% 30.02 in 5.0 mi SE 3.5 mph - N/A   Overcast
2:35 AM 44.6 °F - 39.2 °F 81% 30.02 in 4.0 mi Calm Calm - N/A   Overcast
2:55 AM 44.6 °F - 39.2 °F 81% 30.01 in 5.0 mi Calm Calm - N/A   Overcast
3:15 AM 44.6 °F 43.1 °F 39.2 °F 81% 30.00 in 5.0 mi SE 3.5 mph - 0.01 in   Overcast
3:35 AM 44.6 °F - 39.2 °F 81% 30.00 in 7.0 mi Calm Calm - 0.02 in   Overcast
3:55 AM 44.6 °F - 39.2 °F 81% 29.98 in 6.0 mi Calm Calm - 0.02 in   Overcast
4:15 AM 44.6 °F - 39.2 °F 81% 29.97 in 3.0 mi Calm Calm - N/A   Overcast
4:35 AM 44.6 °F - 39.2 °F 81% 29.95 in 2.5 mi Calm Calm - 0.02 in   Overcast
4:55 AM 44.6 °F - 39.2 °F 81% 29.95 in 4.0 mi Calm Calm - 0.02 in   Overcast
5:15 AM 44.6 °F - 39.2 °F 81% 29.94 in 4.0 mi Calm Calm - N/A   Overcast
5:35 AM 44.6 °F - 41.0 °F 87% 29.93 in 2.0 mi Calm Calm - 0.02 in   Overcast
5:55 AM 44.6 °F - 41.0 °F 87% 29.92 in 3.0 mi Calm Calm - 0.05 in   Overcast
6:15 AM 44.6 °F - 42.8 °F 93% 29.91 in 5.0 mi Calm Calm - 0.05 in   Overcast
6:35 AM 44.6 °F - 41.0 °F 87% 29.92 in 4.0 mi Calm Calm - 0.11 in   Overcast
6:55 AM 44.6 °F - 41.0 °F 87% 29.91 in 4.0 mi Calm Calm - 0.18 in   Overcast
7:15 AM 44.6 °F - 42.8 °F 93% 29.91 in 4.0 mi Calm Calm - 0.01 in   Overcast
7:35 AM 44.6 °F - 42.8 °F 93% 29.90 in 2.5 mi Calm Calm - 0.02 in   Overcast
7:55 AM 44.6 °F - 42.8 °F 93% 29.90 in 3.0 mi Calm Calm - 0.03 in   Overcast
8:15 AM 46.4 °F - 42.8 °F 87% 29.90 in 5.0 mi Calm Calm - N/A   Overcast
8:35 AM 46.4 °F - 42.8 °F 87% 29.90 in 1.8 mi Calm Calm - N/A   Overcast
8:55 AM 46.4 °F 45.2 °F 42.8 °F 87% 29.89 in 5.0 mi SW 3.5 mph - 0.02 in   Overcast
9:15 AM 46.4 °F 45.2 °F 42.8 °F 87% 29.89 in 6.0 mi SW 3.5 mph - 0.01 in   Overcast
9:35 AM 48.2 °F - 44.6 °F 87% 29.89 in 4.0 mi WSW 4.6 mph - 0.02 in   Overcast
9:55 AM 48.2 °F - 44.6 °F 87% 29.89 in 10.0 mi Calm Calm - 0.02 in   Overcast
10:15 AM 48.2 °F - 44.6 °F 87% 29.88 in 7.0 mi WSW 5.8 mph - N/A   Overcast
10:35 AM 48.2 °F - 44.6 °F 87% 29.87 in 3.0 mi WSW 6.9 mph - N/A   Overcast
10:55 AM 48.2 °F - 44.6 °F 87% 29.87 in 6.0 mi WSW 6.9 mph - N/A   Overcast
11:15 AM 50.0 °F - 46.4 °F 87% 29.87 in 10.0 mi West 11.5 mph 17.3 mph N/A   Overcast
11:35 AM 51.8 °F - 46.4 °F 82% 29.86 in 10.0 mi WNW 13.8 mph 27.6 mph N/A   Overcast
11:55 AM 48.2 °F - 42.8 °F 82% 29.86 in 10.0 mi WNW 15.0 mph 27.6 mph N/A   Overcast
12:15 PM 48.2 °F - 41.0 °F 76% 29.88 in 10.0 mi NW 17.3 mph 24.2 mph N/A   Overcast
12:35 PM 46.4 °F 40.4 °F 39.2 °F 76% 29.90 in 10.0 mi WNW 13.8 mph 24.2 mph N/A   Overcast
12:55 PM 46.4 °F 39.8 °F 37.4 °F 71% 29.91 in 10.0 mi WNW 16.1 mph 27.6 mph N/A   Overcast
1:15 PM 44.6 °F 36.6 °F 37.4 °F 76% 29.92 in 10.0 mi NW 19.6 mph 27.6 mph N/A   Overcast
1:35 PM 44.6 °F 38.8 °F 35.6 °F 71% 29.93 in 10.0 mi NW 11.5 mph 25.3 mph N/A   Overcast
1:55 PM 42.8 °F 35.1 °F 33.8 °F 70% 29.94 in 10.0 mi West 16.1 mph 23.0 mph N/A   Overcast
2:15 PM 42.8 °F 34.8 °F 33.8 °F 70% 29.96 in 10.0 mi WNW 17.3 mph 25.3 mph N/A   Overcast
2:35 PM 41.0 °F 33.1 °F 33.8 °F 76% 29.98 in 10.0 mi WNW 15.0 mph 27.6 mph N/A   Overcast
2:55 PM 39.2 °F 30.2 °F 30.2 °F 70% 29.99 in 10.0 mi WNW 17.3 mph 26.5 mph N/A   Overcast
3:15 PM 37.4 °F 27.8 °F 28.4 °F 70% 30.01 in 10.0 mi NW 17.3 mph 28.8 mph N/A   Overcast
3:35 PM 37.4 °F 27.5 °F 26.6 °F 65% 30.03 in 10.0 mi NW 18.4 mph 29.9 mph N/A   Overcast
3:55 PM 35.6 °F 27.1 °F 24.8 °F 65% 30.04 in 10.0 mi NW 12.7 mph 27.6 mph N/A   Mostly Cloudy
4:15 PM 35.6 °F 25.2 °F 24.8 °F 65% 30.05 in 10.0 mi NW 18.4 mph 26.5 mph N/A   Partly Cloudy
4:35 PM 33.8 °F 25.8 °F 24.8 °F 70% 30.06 in 10.0 mi WNW 10.4 mph 17.3 mph N/A   Mostly Cloudy
4:55 PM 33.8 °F 25.3 °F 23.0 °F 65% 30.07 in 10.0 mi NW 11.5 mph 19.6 mph N/A   Mostly Cloudy
5:15 PM 32.0 °F 24.8 °F 21.2 °F 64% 30.09 in 10.0 mi NW 8.1 mph 19.6 mph N/A   Partly Cloudy
5:35 PM 32.0 °F 24.2 °F 19.4 °F 60% 30.10 in 10.0 mi NW 9.2 mph 18.4 mph N/A   Clear
5:55 PM 30.2 °F 18.5 °F 19.4 °F 64% 30.12 in 10.0 mi NW 17.3 mph 23.0 mph N/A   Scattered Clouds
6:15 PM 30.2 °F 18.9 °F 19.4 °F 64% 30.13 in 10.0 mi NW 16.1 mph 26.5 mph N/A   Partly Cloudy
6:35 PM 30.2 °F 20.8 °F 17.6 °F 60% 30.13 in 10.0 mi NNW 11.5 mph 24.2 mph N/A   Clear
6:55 PM 30.2 °F 19.3 °F 17.6 °F 60% 30.14 in 10.0 mi NW 15.0 mph 23.0 mph N/A   Mostly Cloudy
7:15 PM 30.2 °F 19.8 °F 17.6 °F 60% 30.15 in 10.0 mi NNW 13.8 mph 24.2 mph N/A   Mostly Cloudy
7:35 PM 30.2 °F 20.8 °F 17.6 °F 60% 30.17 in 10.0 mi NNW 11.5 mph 19.6 mph N/A   Overcast
7:55 PM 30.2 °F 20.2 °F 17.6 °F 60% 30.19 in 10.0 mi NNW 12.7 mph 21.9 mph N/A   Overcast
8:15 PM 28.4 °F 18.0 °F 15.8 °F 59% 30.20 in 10.0 mi NNW 12.7 mph - N/A   Overcast
8:35 PM 28.4 °F 18.5 °F 15.8 °F 59% 30.21 in 10.0 mi NNW 11.5 mph 20.7 mph N/A   Overcast
8:55 PM 28.4 °F 18.0 °F 15.8 °F 59% 30.22 in 10.0 mi North 12.7 mph 23.0 mph N/A   Overcast
9:15 PM 28.4 °F 15.8 °F 15.8 °F 59% 30.23 in 10.0 mi NNW 18.4 mph 25.3 mph N/A   Overcast
9:35 PM 26.6 °F 15.7 °F 14.0 °F 59% 30.24 in 10.0 mi NNW 12.7 mph 23.0 mph N/A   Overcast
9:55 PM 26.6 °F 16.2 °F 12.2 °F 55% 30.25 in 10.0 mi NNW 11.5 mph 20.7 mph N/A   Overcast
10:15 PM 26.6 °F 14.7 °F 12.2 °F 55% 30.25 in 10.0 mi NNW 15.0 mph 18.4 mph N/A   Overcast
10:35 PM 26.6 °F 18.2 °F 12.2 °F 55% 30.26 in 10.0 mi NNW 8.1 mph 18.4 mph N/A   Overcast
10:55 PM 26.6 °F 17.5 °F 12.2 °F 55% 30.27 in 10.0 mi NNW 9.2 mph - N/A   Overcast
11:15 PM 26.6 °F 15.2 °F 12.2 °F 55% 30.28 in 10.0 mi NNW 13.8 mph 20.7 mph N/A   Overcast
11:35 PM 26.6 °F 17.5 °F 10.4 °F 51% 30.29 in 10.0 mi North 9.2 mph 18.4 mph N/A   Overcast
11:55 PM 24.8 °F 14.6 °F 10.4 °F 54% 30.29 in 10.0 mi NNW 10.4 mph 19.6 mph N/A   Overcast